Time,TemperatureF,DewpointF,PressureIn,WindDirection,WindDirectionDegrees,WindSpeedMPH,WindSpeedGustMPH,Humidity,HourlyPrecipIn,Conditions,Clouds,dailyrainin,SoftwareType,DateUTC
2013-05-15 00:03:00,48.0,33.0,29.95,SE,126,3.0,-999.0,55,-99.99,,,-99.99,,2013-05-15 04:03:00,
2013-05-15 00:12:00,48.0,33.0,29.95,SE,126,3.0,-999.0,55,-99.99,,,-99.99,,2013-05-15 04:12:00,
2013-05-15 00:24:00,48.0,32.0,29.94,SE,125,3.0,-999.0,53,-99.99,,,-99.99,,2013-05-15 04:24:00,
2013-05-15 00:33:00,47.0,31.0,29.93,ESE,115,3.0,-999.0,54,-99.99,,,-99.99,,2013-05-15 04:33:00,
2013-05-15 00:42:00,47.0,31.0,29.93,ESE,115,3.0,-999.0,54,-99.99,,,-99.99,,2013-05-15 04:42:00,
2013-05-15 00:52:00,47.0,32.0,29.93,ESE,113,3.0,-999.0,55,-99.99,,,-99.99,,2013-05-15 04:52:00,
2013-05-15 01:02:00,47.0,32.0,29.93,ESE,117,2.0,-999.0,55,-99.99,,,-99.99,,2013-05-15 05:02:00,
2013-05-15 01:12:00,47.0,32.0,29.93,ESE,117,2.0,-999.0,55,-99.99,,,-99.99,,2013-05-15 05:12:00,
2013-05-15 01:22:00,47.0,32.0,29.92,SE,125,2.0,-999.0,56,-99.99,,,-99.99,,2013-05-15 05:22:00,
2013-05-15 01:32:00,46.0,32.0,29.91,ESE,120,3.0,-999.0,58,-99.99,,,-99.99,,2013-05-15 05:32:00,
2013-05-15 01:42:00,46.0,32.0,29.91,ESE,120,3.0,-999.0,58,-99.99,,,-99.99,,2013-05-15 05:42:00,
2013-05-15 01:52:00,46.0,32.0,29.90,SE,140,3.0,-999.0,59,-99.99,,,-99.99,,2013-05-15 05:52:00,
2013-05-15 02:02:00,46.0,33.0,29.89,ESE,121,3.0,-999.0,60,-99.99,,,-99.99,,2013-05-15 06:02:00,
2013-05-15 02:11:00,46.0,33.0,29.89,ESE,121,3.0,-999.0,60,-99.99,,,-99.99,,2013-05-15 06:11:00,
2013-05-15 02:21:00,46.0,33.0,29.89,ESE,123,2.0,-999.0,61,-99.99,,,-99.99,,2013-05-15 06:21:00,
2013-05-15 02:32:00,46.0,34.0,29.88,SE,124,1.0,-999.0,63,-99.99,,,-99.99,,2013-05-15 06:32:00,
2013-05-15 02:42:00,46.0,34.0,29.88,SE,124,1.0,-999.0,63,-99.99,,,-99.99,,2013-05-15 06:42:00,
2013-05-15 02:52:00,46.0,35.0,29.88,SE,125,2.0,-999.0,64,-99.99,,,-99.99,,2013-05-15 06:52:00,
2013-05-15 03:01:00,46.0,35.0,29.87,SE,125,2.0,-999.0,66,-99.99,,,-99.99,,2013-05-15 07:01:00,
2013-05-15 03:11:00,46.0,35.0,29.87,SE,125,2.0,-999.0,66,-99.99,,,-99.99,,2013-05-15 07:11:00,
2013-05-15 03:22:00,46.0,36.0,29.87,SE,124,1.0,-999.0,67,-99.99,,,-99.99,,2013-05-15 07:22:00,
2013-05-15 03:32:00,46.0,36.0,29.87,SE,126,1.0,-999.0,68,-99.99,,,-99.99,,2013-05-15 07:32:00,
2013-05-15 03:42:00,46.0,36.0,29.87,SE,126,1.0,-999.0,68,-99.99,,,-99.99,,2013-05-15 07:42:00,
2013-05-15 03:52:00,46.0,36.0,29.87,SE,126,1.0,-999.0,69,-99.99,,,-99.99,,2013-05-15 07:52:00,
2013-05-15 04:02:00,46.0,36.0,29.86,SE,128,2.0,-999.0,68,-99.99,,,-99.99,,2013-05-15 08:02:00,
2013-05-15 04:12:00,46.0,36.0,29.86,SE,128,2.0,-999.0,68,-99.99,,,-99.99,,2013-05-15 08:12:00,
2013-05-15 04:21:00,46.0,36.0,29.85,SE,126,2.0,-999.0,68,-99.99,,,-99.99,,2013-05-15 08:21:00,
2013-05-15 04:32:00,46.0,36.0,29.84,SE,125,1.0,-999.0,69,-99.99,,,-99.99,,2013-05-15 08:32:00,
2013-05-15 04:42:00,46.0,36.0,29.84,SE,125,1.0,-999.0,69,-99.99,,,-99.99,,2013-05-15 08:42:00,
2013-05-15 04:53:00,46.0,37.0,29.84,ESE,122,3.0,-999.0,70,-99.99,,,-99.99,,2013-05-15 08:53:00,
2013-05-15 05:01:00,46.0,37.0,29.83,ESE,118,2.0,-999.0,71,-99.99,,,-99.99,,2013-05-15 09:01:00,
2013-05-15 05:12:00,46.0,37.0,29.83,ESE,118,2.0,-999.0,71,-99.99,,,-99.99,,2013-05-15 09:12:00,
2013-05-15 05:22:00,46.0,38.0,29.82,ESE,121,4.0,-999.0,73,-99.99,,,-99.99,,2013-05-15 09:22:00,
2013-05-15 05:33:00,46.0,38.0,29.79,ESE,121,4.0,-999.0,74,-99.99,,,-99.99,,2013-05-15 09:33:00,
2013-05-15 05:42:00,46.0,38.0,29.79,ESE,121,4.0,-999.0,74,-99.99,,,-99.99,,2013-05-15 09:42:00,
2013-05-15 05:53:00,47.0,39.0,29.79,SE,136,4.0,-999.0,73,-99.99,,,-99.99,,2013-05-15 09:53:00,
2013-05-15 06:02:00,47.0,38.0,29.79,SE,132,5.0,-999.0,72,-99.99,,,-99.99,,2013-05-15 10:02:00,
2013-05-15 06:13:00,47.0,38.0,29.79,SE,132,5.0,-999.0,72,-99.99,,,-99.99,,2013-05-15 10:13:00,
2013-05-15 06:23:00,48.0,40.0,29.78,SE,141,6.0,-999.0,73,-99.99,,,-99.99,,2013-05-15 10:23:00,
2013-05-15 06:32:00,48.0,40.0,29.78,SE,138,4.0,-999.0,74,-99.99,,,-99.99,,2013-05-15 10:32:00,
2013-05-15 06:42:00,48.0,40.0,29.78,SE,138,4.0,-999.0,74,-99.99,,,-99.99,,2013-05-15 10:42:00,
2013-05-15 06:52:00,47.0,41.0,29.79,ESE,123,3.0,-999.0,78,-99.99,,,-99.99,,2013-05-15 10:52:00,
2013-05-15 07:12:00,47.0,41.0,29.78,SE,133,3.0,-999.0,80,-99.99,,,-99.99,,2013-05-15 11:12:00,
2013-05-15 07:19:00,47.0,41.0,29.78,SE,133,3.0,-999.0,80,-99.99,,,-99.99,,2013-05-15 11:19:00,
2013-05-15 07:28:00,47.0,41.0,29.76,SE,131,4.0,-999.0,79,-99.99,,,-99.99,,2013-05-15 11:28:00,
2013-05-15 07:38:00,47.0,41.0,29.74,SE,134,5.0,-999.0,79,-99.99,,,-99.99,,2013-05-15 11:38:00,
2013-05-15 07:56:00,48.0,41.0,29.73,SE,124,4.0,-999.0,78,-99.99,,,-99.99,,2013-05-15 11:56:00,
2013-05-15 08:15:00,48.0,41.0,29.75,ESE,123,4.0,-999.0,78,-99.99,,,-99.99,,2013-05-15 12:15:00,
2013-05-15 08:29:00,49.0,43.0,29.75,SSE,147,3.0,-999.0,79,-99.99,,,-99.99,,2013-05-15 12:29:00,
2013-05-15 08:48:00,49.0,42.0,29.74,ESE,119,4.0,-999.0,78,-99.99,,,-99.99,,2013-05-15 12:48:00,
2013-05-15 08:54:00,49.0,43.0,29.75,SE,136,3.0,-999.0,80,-99.99,,,-99.99,,2013-05-15 12:54:00,
2013-05-15 09:19:00,48.0,43.0,29.73,SE,127,4.0,-999.0,84,-99.99,,,-99.99,,2013-05-15 13:19:00,
2013-05-15 09:27:00,48.0,44.0,29.72,SE,144,7.0,-999.0,86,-99.99,,,-99.99,,2013-05-15 13:27:00,
2013-05-15 09:36:00,48.0,44.0,29.67,SE,131,6.0,-999.0,85,-99.99,,,-99.99,,2013-05-15 13:36:00,
2013-05-15 09:57:00,49.0,45.0,29.68,SSE,157,3.0,-999.0,85,-99.99,,,-99.99,,2013-05-15 13:57:00,
2013-05-15 10:08:00,49.0,46.0,29.70,SSE,149,5.0,-999.0,88,-99.99,,,-99.99,,2013-05-15 14:08:00,
2013-05-15 10:14:00,49.0,46.0,29.70,SSE,149,5.0,-999.0,88,-99.99,,,-99.99,,2013-05-15 14:14:00,
2013-05-15 10:27:00,51.0,47.0,29.67,SE,146,7.0,-999.0,86,-99.99,,,-99.99,,2013-05-15 14:27:00,
2013-05-15 10:38:00,53.0,48.0,29.65,SSE,163,9.0,-999.0,83,-99.99,,,-99.99,,2013-05-15 14:38:00,
2013-05-15 10:48:00,53.0,48.0,29.65,SSE,163,9.0,-999.0,83,-99.99,,,-99.99,,2013-05-15 14:48:00,
2013-05-15 10:54:00,55.0,49.0,29.63,SE,133,8.0,-999.0,79,-99.99,,,-99.99,,2013-05-15 14:54:00,
2013-05-15 11:16:00,56.0,49.0,29.62,SE,144,8.0,-999.0,77,-99.99,,,-99.99,,2013-05-15 15:16:00,
2013-05-15 11:29:00,56.0,49.0,29.61,SSE,153,8.0,-999.0,77,-99.99,,,-99.99,,2013-05-15 15:29:00,
2013-05-15 11:38:00,57.0,49.0,29.60,SE,134,9.0,-999.0,74,-99.99,,,-99.99,,2013-05-15 15:38:00,
2013-05-15 11:48:00,57.0,49.0,29.60,SE,134,9.0,-999.0,74,-99.99,,,-99.99,,2013-05-15 15:48:00,
2013-05-15 11:57:00,60.0,51.0,29.58,South,169,6.0,-999.0,73,-99.99,,,-99.99,,2013-05-15 15:57:00,
2013-05-15 12:10:00,62.0,52.0,29.59,South,173,6.0,-999.0,69,-99.99,,,-99.99,,2013-05-15 16:10:00,
2013-05-15 12:23:00,62.0,52.0,29.59,South,173,6.0,-999.0,69,-99.99,,,-99.99,,2013-05-15 16:23:00,
2013-05-15 12:28:00,64.0,54.0,29.57,SSE,162,4.0,-999.0,69,-99.99,,,-99.99,,2013-05-15 16:28:00,
2013-05-15 12:38:00,67.0,55.0,29.56,South,182,4.0,-999.0,66,-99.99,,,-99.99,,2013-05-15 16:38:00,
2013-05-15 12:48:00,67.0,55.0,29.56,South,182,4.0,-999.0,66,-99.99,,,-99.99,,2013-05-15 16:48:00,
2013-05-15 13:12:00,72.0,56.0,29.53,South,177,10.0,-999.0,57,-99.99,,,-99.99,,2013-05-15 17:12:00,
2013-05-15 13:20:00,72.0,56.0,29.53,South,177,10.0,-999.0,57,-99.99,,,-99.99,,2013-05-15 17:20:00,
2013-05-15 13:28:00,74.0,57.0,29.51,SW,235,12.0,-999.0,56,-99.99,,,-99.99,,2013-05-15 17:28:00,
2013-05-15 13:38:00,75.0,57.0,29.50,SSE,167,10.0,-999.0,54,-99.99,,,-99.99,,2013-05-15 17:38:00,
2013-05-15 14:07:00,75.0,58.0,29.49,South,181,6.0,-999.0,55,-99.99,,,-99.99,,2013-05-15 18:07:00,
2013-05-15 14:16:00,75.0,58.0,29.49,South,181,6.0,-999.0,55,-99.99,,,-99.99,,2013-05-15 18:16:00,
2013-05-15 14:28:00,77.0,60.0,29.48,SSW,210,5.0,-999.0,55,-99.99,,,-99.99,,2013-05-15 18:28:00,
2013-05-15 14:38:00,79.0,59.0,29.47,WSW,247,9.0,-999.0,51,-99.99,,,-99.99,,2013-05-15 18:38:00,
2013-05-15 14:47:00,79.0,59.0,29.47,WSW,247,9.0,-999.0,51,-99.99,,,-99.99,,2013-05-15 18:47:00,
2013-05-15 14:55:00,79.0,60.0,29.48,WSW,249,11.0,-999.0,52,-99.99,,,-99.99,,2013-05-15 18:55:00,
2013-05-15 15:09:00,80.0,59.0,29.48,WSW,247,13.0,-999.0,48,-99.99,,,-99.99,,2013-05-15 19:09:00,
2013-05-15 15:15:00,80.0,59.0,29.48,WSW,247,13.0,-999.0,48,-99.99,,,-99.99,,2013-05-15 19:15:00,
2013-05-15 15:30:00,78.0,58.0,29.49,West,259,14.0,-999.0,50,-99.99,,,-99.99,,2013-05-15 19:30:00,
2013-05-15 15:39:00,78.0,58.0,29.50,West,275,12.0,-999.0,51,-99.99,,,-99.99,,2013-05-15 19:39:00,
2013-05-15 15:46:00,78.0,58.0,29.50,West,275,12.0,-999.0,51,-99.99,,,-99.99,,2013-05-15 19:46:00,
2013-05-15 16:09:00,77.0,58.0,29.51,WSW,250,13.0,-999.0,52,-99.99,,,-99.99,,2013-05-15 20:09:00,
2013-05-15 16:19:00,77.0,58.0,29.51,WSW,250,13.0,-999.0,52,-99.99,,,-99.99,,2013-05-15 20:19:00,
2013-05-15 16:40:00,77.0,59.0,29.52,West,265,10.0,-999.0,53,-99.99,,,-99.99,,2013-05-15 20:40:00,
2013-05-15 16:53:00,77.0,55.0,29.53,WSW,258,12.0,-999.0,47,-99.99,,,-99.99,,2013-05-15 20:53:00,
2013-05-15 17:09:00,77.0,54.0,29.54,WNW,288,13.0,-999.0,45,-99.99,,,-99.99,,2013-05-15 21:09:00,
2013-05-15 17:20:00,77.0,54.0,29.54,WNW,288,13.0,-999.0,45,-99.99,,,-99.99,,2013-05-15 21:20:00,
2013-05-15 17:28:00,76.0,52.0,29.55,WNW,300,10.0,-999.0,44,-99.99,,,-99.99,,2013-05-15 21:28:00,
2013-05-15 17:41:00,76.0,51.0,29.56,WSW,250,9.0,-999.0,42,-99.99,,,-99.99,,2013-05-15 21:41:00,
2013-05-15 17:51:00,76.0,51.0,29.56,WSW,250,9.0,-999.0,42,-99.99,,,-99.99,,2013-05-15 21:51:00,
2013-05-15 18:11:00,74.0,51.0,29.58,NW,304,14.0,-999.0,44,-99.99,,,-99.99,,2013-05-15 22:11:00,
2013-05-15 18:18:00,74.0,51.0,29.58,NW,304,14.0,-999.0,44,-99.99,,,-99.99,,2013-05-15 22:18:00,
2013-05-15 18:30:00,73.0,50.0,29.59,WSW,240,14.0,-999.0,45,-99.99,,,-99.99,,2013-05-15 22:30:00,
2013-05-15 18:40:00,72.0,51.0,29.60,West,281,11.0,-999.0,47,-99.99,,,-99.99,,2013-05-15 22:40:00,
2013-05-15 18:49:00,72.0,51.0,29.60,West,281,11.0,-999.0,47,-99.99,,,-99.99,,2013-05-15 22:49:00,
2013-05-15 18:55:00,72.0,51.0,29.61,WSW,248,10.0,-999.0,48,-99.99,,,-99.99,,2013-05-15 22:55:00,
2013-05-15 19:09:00,72.0,50.0,29.62,WSW,253,11.0,-999.0,46,-99.99,,,-99.99,,2013-05-15 23:09:00,
2013-05-15 19:16:00,72.0,50.0,29.62,WSW,253,11.0,-999.0,46,-99.99,,,-99.99,,2013-05-15 23:16:00,
2013-05-15 19:29:00,72.0,50.0,29.62,WNW,298,11.0,-999.0,46,-99.99,,,-99.99,,2013-05-15 23:29:00,
2013-05-15 19:39:00,72.0,48.0,29.63,West,273,11.0,-999.0,43,-99.99,,,-99.99,,2013-05-15 23:39:00,
2013-05-15 19:50:00,72.0,48.0,29.63,West,273,11.0,-999.0,43,-99.99,,,-99.99,,2013-05-15 23:50:00,
2013-05-15 19:55:00,71.0,45.0,29.63,WSW,254,12.0,-999.0,40,-99.99,,,-99.99,,2013-05-15 23:55:00,
2013-05-15 20:18:00,70.0,46.0,29.64,WNW,284,10.0,-999.0,43,-99.99,,,-99.99,,2013-05-16 00:18:00,
2013-05-15 20:27:00,70.0,46.0,29.65,WSW,255,7.0,-999.0,42,-99.99,,,-99.99,,2013-05-16 00:27:00,
2013-05-15 20:50:00,68.0,45.0,29.67,WNW,284,6.0,-999.0,43,-99.99,,,-99.99,,2013-05-16 00:50:00,
2013-05-15 21:08:00,67.0,45.0,29.67,NW,311,3.0,-999.0,45,-99.99,,,-99.99,,2013-05-16 01:08:00,
2013-05-15 21:18:00,67.0,45.0,29.67,NW,311,3.0,-999.0,45,-99.99,,,-99.99,,2013-05-16 01:18:00,
2013-05-15 21:30:00,66.0,44.0,29.68,West,278,4.0,-999.0,45,-99.99,,,-99.99,,2013-05-16 01:30:00,
2013-05-15 21:38:00,65.0,44.0,29.69,WNW,282,2.0,-999.0,46,-99.99,,,-99.99,,2013-05-16 01:38:00,
2013-05-15 21:48:00,65.0,44.0,29.69,WNW,282,2.0,-999.0,46,-99.99,,,-99.99,,2013-05-16 01:48:00,
2013-05-15 21:56:00,65.0,44.0,29.69,West,271,2.0,-999.0,47,-99.99,,,-99.99,,2013-05-16 01:56:00,
2013-05-15 22:08:00,64.0,43.0,29.70,West,259,1.0,-999.0,47,-99.99,,,-99.99,,2013-05-16 02:08:00,
2013-05-15 22:18:00,64.0,43.0,29.70,West,259,1.0,-999.0,47,-99.99,,,-99.99,,2013-05-16 02:18:00,
2013-05-15 22:28:00,64.0,44.0,29.70,West,259,1.0,-999.0,48,-99.99,,,-99.99,,2013-05-16 02:28:00,
2013-05-15 22:39:00,64.0,44.0,29.70,West,259,1.0,-999.0,49,-99.99,,,-99.99,,2013-05-16 02:39:00,
2013-05-15 22:46:00,64.0,44.0,29.70,West,259,1.0,-999.0,49,-99.99,,,-99.99,,2013-05-16 02:46:00,
2013-05-15 22:54:00,64.0,44.0,29.70,West,259,1.0,-999.0,49,-99.99,,,-99.99,,2013-05-16 02:54:00,
2013-05-15 23:07:00,63.0,44.0,29.70,West,259,1.0,-999.0,50,-99.99,,,-99.99,,2013-05-16 03:07:00,
2013-05-15 23:17:00,63.0,44.0,29.70,West,259,1.0,-999.0,50,-99.99,,,-99.99,,2013-05-16 03:17:00,
2013-05-15 23:27:00,63.0,44.0,29.69,WSW,258,1.0,-999.0,50,-99.99,,,-99.99,,2013-05-16 03:27:00,
2013-05-15 23:46:00,62.0,44.0,29.69,WSW,258,0.0,-999.0,51,-99.99,,,-99.99,,2013-05-16 03:46:00,